Home   Weather   Khan Yunis   Past weeks

Flag for Palestinian Territories Past Weather in Khan Yunis, Gaza Strip, Palestinian Territories — Yesterday and Last 2 Weeks

Now
45 °F

Clear.


Feels Like: 43 °F
Forecast: 54 / 67 °F
Wind: 3 mph from North

Location: Ben Gurion International Airport

Current Time: Dec 10, 2016 at 3:15:07 am

Latest Report: Dec 10, 2016 at 2:50 am


Visibility: 10 mi

Pressure: 30.24 "Hg

Humidity: 81%

Dew Point: 39 °F

Location of Khan YunisLocation

Past Weather in Khan Yunis — Graph

°F

Khan Yunis Temperature Yesterday

Maximum temperature yesterday: 64 °F (at 1:20 pm)
Minimum temperature yesterday: 48 °F (at 5:20 am)
Average temperature yesterday: 55 °F

High & Low Weather Summary for the Past Weeks

 TemperatureHumidityPressure
High77 °F (Nov 28, 12:50 pm)94% (Dec 2, 12:20 am)30.33 "Hg (Dec 2, 12:20 am)
Low39 °F (Nov 26, 4:20 am)4% (Nov 25, 11:20 am)29.74 "Hg (Dec 1, 1:50 pm)
Average60 °F53%30.09 "Hg
* Reported Nov 25 1:20 am — Dec 10 1:50 am, Khan Yunis, Weather by CustomWeather, © 2016

Note: Actual official high and low records may vary slightly from our data, if they occured in-between our weather recording intervals... More about our weather records

Advertising

Khan Yunis Weather History for the Previous 24 Hours

Scroll right to see more
 ConditionsComfort  
Time TempWeatherWind HumidityBarometerVisibility
1:50 am
Sat, Dec 10
46 °FClear.6 mph76%30.24 "Hg10 mi
1:20 am46 °FClear.5 mph76%30.24 "Hg10 mi
12:50 am46 °FClear.1 mph82%30.24 "Hg10 mi
12:20 am46 °FClear.5 mph82%30.24 "Hg10 mi
11:50 pm
Fri, Dec 9
48 °FClear.2 mph76%30.27 "Hg10 mi
11:20 pm48 °FClear.1 mph76%30.27 "Hg10 mi
10:50 pm50 °FClear.3 mph67%30.27 "Hg10 mi
10:20 pm50 °FClear.2 mph67%30.27 "Hg10 mi
9:50 pm50 °FClear.3 mph67%30.27 "Hg10 mi
9:20 pm50 °FClear.3 mph71%30.27 "Hg10 mi
8:50 pm52 °FClear.7 mph62%30.27 "Hg10 mi
8:20 pm52 °FClear.5 mph67%30.27 "Hg10 mi
7:50 pm54 °FClear.5 mph63%30.27 "Hg10 mi
7:20 pm55 °FClear.5 mph59%30.27 "Hg10 mi
6:50 pm55 °FClear.3 mph51%30.27 "Hg10 mi
6:20 pm57 °FClear.6 mph48%30.27 "Hg10 mi
5:50 pm59 °FClear.5 mph45%30.27 "Hg10 mi
5:20 pm59 °FClear.6 mph45%30.24 "Hg10 mi
4:50 pm61 °FClear.7 mph42%30.24 "Hg10 mi
4:20 pm61 °FSunny.10 mph42%30.24 "Hg10 mi
3:50 pm63 °FSunny.10 mph37%30.24 "Hg10 mi
3:20 pm63 °FSunny.12 mph37%30.24 "Hg10 mi
2:50 pm64 °FSunny.9 mph37%30.24 "Hg10 mi
2:20 pm64 °FSunny.8 mph37%30.24 "Hg10 mi
1:50 pm64 °FSunny.8 mph37%30.24 "Hg10 mi
1:20 pm64 °FSunny.8 mph37%30.24 "Hg10 mi
12:50 pm63 °FSunny.6 mph39%30.24 "Hg10 mi
12:20 pm63 °FSunny.6 mph42%30.24 "Hg10 mi
11:50 am63 °FSunny.8 mph42%30.27 "Hg10 mi
11:20 am61 °FSunny.6 mph45%30.27 "Hg10 mi
10:50 am61 °FSunny.6 mph45%30.30 "Hg10 mi
10:20 am59 °FSunny.7 mph48%30.30 "Hg10 mi
9:50 am57 °FSunny.6 mph51%30.30 "Hg10 mi
9:20 am55 °FSunny.8 mph55%30.33 "Hg10 mi
8:50 am54 °FSunny.8 mph58%30.33 "Hg10 mi
8:20 am54 °FSunny.6 mph58%30.33 "Hg10 mi
7:50 am50 °FSunny.5 mph67%30.30 "Hg10 mi
7:20 am48 °FSunny.5 mph71%30.30 "Hg10 mi
6:20 am50 °FClear.5 mph62%30.30 "Hg10 mi
5:50 am50 °FClear.6 mph67%30.30 "Hg10 mi
5:20 am48 °FClear.6 mph71%30.30 "Hg10 mi
4:50 am50 °FClear.5 mph67%30.27 "Hg10 mi
4:20 am50 °FClear.6 mph67%30.27 "Hg10 mi
3:50 am50 °FClear.8 mph71%30.27 "Hg10 mi
3:20 am50 °FClear.7 mph71%30.30 "Hg10 mi
Weather by CustomWeather, © 2016

See weather overviewHow to use our weather pages